Date,TemperatureHighF,TemperatureAvgF,TemperatureLowF,DewpointHighF,DewpointAvgF,DewpointLowF,HumidityHigh,HumidityAvg,HumidityLow,PressureMaxIn,PressureMinIn,WindSpeedMaxMPH,WindSpeedAvgMPH,GustSpeedMaxMPH,PrecipitationSumIn
2013-3-1,35,18,3,14,6,-6,72,61,43,30.31,30.19,8,3,12,0.00
2013-3-2,29,16,-3,10,2,-13,66,55,39,30.27,30.01,14,6,16,0.00
2013-3-3,30,23,15,18,10,5,67,59,49,30.01,29.80,24,13,29,0.00
2013-3-4,25,23,22,18,16,14,78,76,68,29.88,29.76,24,16,30,0.00
2013-3-5,31,22,11,20,15,5,80,73,63,30.28,29.86,19,8,25,0.00
2013-3-6,36,18,7,16,7,-3,74,63,43,30.34,30.24,8,2,9,0.01
2013-3-7,27,18,8,14,9,-1,74,66,56,30.27,30.09,24,10,27,0.00
2013-3-8,46,26,14,27,16,7,83,66,45,30.17,29.93,14,6,18,0.01
2013-3-9,34,32,25,31,28,18,88,85,74,29.93,29.67,9,1,12,0.07
2013-3-10,28,22,12,19,14,4,79,72,62,30.05,29.83,14,3,21,0.00
2013-3-11,26,14,-2,10,2,-12,69,60,51,29.96,29.75,10,3,13,0.00
2013-3-12,25,19,12,15,10,4,76,69,60,30.19,29.78,22,10,32,0.01
2013-3-13,33,17,2,16,5,-7,70,59,38,30.29,30.06,14,5,19,0.01
2013-3-14,46,30,21,28,20,15,78,68,49,30.06,29.95,18,6,23,0.02
2013-3-15,34,28,23,26,22,17,86,79,69,29.96,29.80,10,1,12,0.02
2013-3-16,22,8,-1,16,-4,-14,79,58,45,30.19,29.92,0,0,0,0.00
2013-3-17,25,14,-4,20,4,-15,83,64,48,30.19,29.57,30,9,36,0.00
2013-3-18,31,17,5,28,11,-3,88,76,67,29.87,29.40,29,16,36,0.01
2013-3-19,15,6,-3,3,-4,-13,68,62,53,30.21,29.86,18,9,24,0.00
2013-3-20,16,6,-4,0,-7,-15,65,55,47,30.22,30.08,17,8,24,0.00
2013-3-21,34,12,-2,9,-5,-14,60,48,29,30.08,29.99,8,2,11,0.00
2013-3-22,36,14,-4,12,-1,-16,65,53,31,30.06,29.98,7,2,10,0.00
2013-3-23,32,18,4,15,6,-5,71,60,43,30.11,30.03,10,4,14,0.00
2013-3-24,34,22,12,24,14,6,74,69,57,30.09,30.00,15,7,20,0.00
2013-3-25,33,25,15,18,14,6,72,63,50,30.24,30.07,14,9,21,0.00
2013-3-26,35,19,6,17,7,-4,69,59,46,30.26,30.20,8,3,11,0.00
2013-3-27,40,25,8,23,12,-2,71,59,47,30.25,30.21,12,4,15,0.00
2013-3-28,40,32,25,27,22,12,73,64,57,30.24,30.16,14,8,18,0.00
2013-3-29,46,38,29,35,30,23,84,74,59,30.16,29.88,14,7,19,0.01
2013-3-30,40,35,32,36,30,27,87,82,71,29.89,29.82,15,6,19,0.13
2013-3-31,33,27,16,28,17,5,87,68,51,30.13,29.78,26,12,31,0.00